Regional Weather Roundup
Issued by NWS Little Rock, AR

Home | Current Version | Previous Version | Text Only | Print | Product List | Glossary Off
Versions: 1 2 3 4 5 6 7 8 9 10 11 12 13 14 15 16 17 18 19 20 21 22 23 24 25 26 27

000
ASUS44 KLZK 231105
RWRLZK

WEATHER ROUNDUP FOR ARKANSAS
NATIONAL WEATHER SERVICE LITTLE ROCK AR
600 AM CDT WED APR 23 2014

NOTE: "FAIR" INDICATES FEW OR NO CLOUDS BELOW 12,000 FEET WITH NO
SIGNIFICANT WEATHER AND/OR OBSTRUCTIONS TO VISIBILITY.

ARZ001-003-010-029-231200-
NORTHWEST ARKANSAS

CITY           SKY/WX    TMP DP  RH WIND       PRES   REMARKS
FAYETTEVILLE   CLEAR     41  40  96 CALM      29.97F
FORT SMITH     CLEAR     51  44  77 NE5       29.96S
HARRISON       CLEAR     49  37  63 SE8       30.02S
BENTONVILLE    CLEAR     54  36  50 SE9       29.97F
ROGERS         CLEAR     50  45  83 E10       29.98F
SILOAM SPGS    CLEAR     48  36  61 E7        29.97S
HIGHFILL       CLEAR     49  40  71 E3        29.96F
SPRINGDALE     CLEAR     48  39  71 E7        29.99
$$

ARZ004-005-016-231200-
NORTH CENTRAL ARKANSAS

CITY           SKY/WX    TMP DP  RH WIND       PRES   REMARKS
BATESVILLE     CLEAR     45  43  93 CALM      30.03R
FLIPPIN        CLEAR     43  36  75 CALM      30.03S
MTN HOME       CLEAR     48  36  63 E3        30.02R
$$

ARZ040-041-231200-
WEST CENTRAL ARKANSAS

CITY           SKY/WX    TMP DP  RH WIND       PRES   REMARKS
MENA           CLEAR     46 N/A N/A CALM      29.98S
MOUNT IDA      CLEAR     46  44  93 CALM      29.96R
$$

ARZ009-017-025-026-028-231200-
NORTHEAST ARKANSAS

CITY           SKY/WX    TMP DP  RH WIND       PRES   REMARKS
CORNING        FAIR      48  39  71 NE5       30.04S
JONESBORO      CLEAR     52  39  61 NE5       30.03R
NEWPORT        CLEAR     49  45  86 N8        30.04R
WALNUT RIDGE   CLEAR     48  39  71 N5        30.03S
BLYTHEVILLE    CLEAR     44  41  89 N7        30.04R
$$

ARZ022-023-033-042-044-231200-
CENTRAL ARKANSAS

CITY           SKY/WX    TMP DP  RH WIND       PRES   REMARKS
LITTLE ROCK    CLEAR     51  43  74 CALM      30.01R
N LITTLE ROCK    N/A     54  46  74 NE8       30.01R
JACKSONVILLE   CLEAR     50  45  82 NE6       30.01R
SEARCY         CLEAR     48  43  83 CALM      30.03R
HOT SPRINGS    CLEAR     50  47  89 CALM      29.98S
RUSSELLVILLE   CLEAR     54  42  64 E6        30.00R
CLINTON        FAIR      43  43 100 CALM      30.04R
$$

ARZ036-231200-
EAST ARKANSAS

CITY           SKY/WX    TMP DP  RH WIND       PRES   REMARKS
WEST MEMPHIS   CLEAR     48  44  86 NE3       30.01R
$$

ARZ050-053-066-070-073-231200-
SOUTHWEST ARKANSAS

CITY           SKY/WX    TMP DP  RH WIND       PRES   REMARKS
ARKADELPHIA    FAIR      54  52  93 NE3       29.98R
CAMDEN         CLEAR     50  50 100 MISG      29.97S FOG
TEXARKANA      CLEAR     57  54  89 SE5       29.94S
EL DORADO      CLEAR     54  53  97 CALM      29.97R
DE QUEEN       CLEAR     50  49  96 CALM      29.93S FOG
$$

ARZ056-057-069-231200-
SOUTHEAST ARKANSAS

CITY           SKY/WX    TMP DP  RH WIND       PRES   REMARKS
PINE BLUFF     CLEAR     54  48  80 NE6       30.00R
STUTTGART      CLEAR     54  46  76 NE6       30.01R
MONTICELLO     CLEAR     50  48  93 CALM      29.98R

$$





USA.gov is the U.S. government's official web portal to all federal, state and local government web resources and services.